Location: Palermo
(38.1157°N, 13.3613°E)
Time: 12:30:08
(UTC+02:00)

ISS - Visible Passes

Search period start: 13 May 2021 00:00
Search period end: 23 May 2021 00:00
Orbit: 417 x 422 km, 51.6° (Epoch: 13 May)

Date Brightness Start Highest point End Pass type
(mag) Time Alt. Az. Time Alt. Az. Time Alt. Az.
13 May -0.5 03:42:31 10° NNW 03:44:25 14° NNE 03:46:19 10° NE visible
13 May -3.3 05:18:23 10° NW 05:21:45 68° NE 05:25:07 10° ESE visible
14 May -0.3 02:55:35 10° N 02:56:43 11° NNE 02:57:51 10° NE visible
14 May -2.3 04:31:03 10° NW 04:34:16 39° NE 04:37:28 10° ESE visible
14 May -3.0 21:13:21 10° SSW 21:16:20 30° SE 21:19:21 10° ENE visible
14 May -1.7 22:50:10 10° W 22:53:08 28° NNW 22:55:35 13° NNE visible
15 May -1.4 03:43:49 10° NNW 03:46:44 26° NNE 03:49:38 10° E visible
15 May -3.1 05:20:28 10° WNW 05:23:35 35° SW 05:26:42 10° SSE visible
15 May -2.6 22:02:23 10° WSW 22:05:37 44° NW 22:08:51 10° NE visible
15 May -0.2 23:41:47 10° NW 23:43:06 12° NNW 23:44:26 10° N visible
16 May -0.9 02:56:39 10° NNW 02:59:08 19° NNE 03:01:36 10° ENE visible
16 May -3.9 04:32:52 10° NW 04:36:13 66° SW 04:39:33 10° SE visible
16 May -3.6 21:14:47 10° SW 21:18:08 78° NW 21:21:31 10° NE visible
16 May -0.5 22:53:23 10° WNW 22:55:24 15° NNW 22:57:26 10° NNE visible
17 May -0.5 02:09:34 10° NNW 02:11:28 14° NNE 02:13:22 10° NE visible
17 May -3.5 03:45:25 10° NW 03:48:48 69° NE 03:52:09 10° ESE visible
17 May -0.9 22:05:12 10° WNW 22:07:46 20° NNW 22:10:20 10° NNE visible
18 May -0.2 01:22:38 10° N 01:22:56 11° N 01:22:56 11° N visible
18 May -1.5 21:17:13 10° W 21:20:10 28° NNW 21:23:09 10° NNE visible
19 May -0.4 22:08:50 10° NW 22:10:08 12° NNW 22:11:26 10° N visible
20 May -0.7 21:20:25 10° WNW 21:22:26 15° NNW 21:24:27 10° NNE visible
21 May -0.3 00:36:35 10° NNW 00:37:12 12° N 00:37:12 12° N visible
21 May -0.5 23:49:38 10° N 23:50:47 11° NNE 23:51:10 11° NNE visible
